KE1THD Weather Reports


Display with metric or nautical units.
time (UTC)temp
F
wind
direction
speed
MPH
gust
MPH
rain 1hr
in
rain 24hr
in
rain mn
in
humidity
%
barometer
mb
20260504081159 49 216 0.0 0.0 0.00 0.00 0.00 79 1004.7
20260504080655 49 177 2.0 2.0 0.00 0.00 0.00 78 1004.5
20260504080152 49 208 0.0 0.0 0.00 0.00 0.00 78 1004.8
20260504070120 52 212 0.0 0.0 0.00 0.00 0.00 71 1005.1
20260504050509 58 204 0.0 0.0 0.00 0.00 0.00 60 1006.3
20260504050005 58 217 1.0 1.0 0.00 0.00 0.00 60 1006.6
20260504045502 59 212 0.0 0.0 0.00 0.00 0.00 59 1006.5
20260504044957 59 289 1.0 1.0 0.00 0.00 0.00 58 1006.5
20260504044455 59 206 0.0 0.0 0.00 0.00 0.00 58 1006.4
20260504043952 59 206 0.0 0.0 0.00 0.00 0.00 58 1006.6
20260504043449 59 208 1.0 1.0 0.00 0.00 0.00 58 1006.5
20260504042947 60 201 0.0 1.0 0.00 0.00 0.00 58 1006.5
20260504042443 60 193 2.0 2.0 0.00 0.00 0.00 57 1006.7
20260504041940 60 201 0.0 0.0 0.00 0.00 0.00 56 1006.5
20260504041436 60 231 0.0 0.0 0.00 0.00 0.00 56 1006.5
20260504040932 61 218 1.0 1.0 0.00 0.00 0.00 55 1006.8
20260504040430 61 171 1.0 2.0 0.00 0.00 0.00 55 1006.7
20260504035926 61 202 0.0 1.0 0.00 0.00 0.00 55 1006.6
20260504035423 61 201 0.0 1.0 0.00 0.00 0.00 54 1006.6
20260504034920 61 249 2.0 5.0 0.00 0.00 0.00 54 1006.6
20260504034418 61 213 1.0 1.0 0.00 0.00 0.00 54 1006.6
20260504033914 62 208 0.0 0.0 0.00 0.00 0.00 53 1006.6
20260504033412 62 219 0.0 1.0 0.00 0.00 0.00 52 1006.6
20260504032909 62 201 0.0 0.0 0.00 0.00 0.00 52 1006.7
20260504032406 62 206 2.0 3.0 0.00 0.00 0.00 51 1006.7
20260504031902 62 219 2.0 2.0 0.00 0.00 0.00 52 1006.8
20260504031400 63 206 0.0 0.0 0.00 0.00 0.00 51 1006.8
20260504030856 63 222 0.0 0.0 0.00 0.00 0.00 50 1006.9
20260504030353 64 209 0.0 0.0 0.00 0.00 0.00 50 1006.7
20260504025849 64 180 2.0 2.0 0.00 0.00 0.00 49 1006.7
20260504025346 64 182 1.0 1.0 0.00 0.00 0.00 50 1006.5
20260504024843 64 205 1.0 1.0 0.00 0.00 0.00 49 1006.5
20260504024339 64 219 1.0 1.0 0.00 0.00 0.00 49 1006.5
20260504023836 64 212 1.0 1.0 0.00 0.00 0.00 49 1006.5
20260504023333 64 226 0.0 1.0 0.00 0.00 0.00 50 1006.4
20260504022829 64 191 3.0 3.0 0.00 0.00 0.00 49 1006.4
20260504022326 64 182 1.0 1.0 0.00 0.00 0.00 49 1006.5
20260504021822 64 195 1.0 3.0 0.00 0.00 0.00 48 1006.2
20260504021320 65 208 0.0 1.0 0.00 0.00 0.00 49 1006.3
20260504020817 65 216 1.0 1.0 0.00 0.00 0.00 48 1006.2
20260504020314 66 224 2.0 5.0 0.00 0.00 0.00 47 1006.2
20260504015809 66 197 3.0 3.0 0.00 0.00 0.00 48 1006.3
20260504015306 66 231 1.0 2.0 0.00 0.00 0.00 47 1006.1
20260504014802 66 189 2.0 3.0 0.00 0.00 0.00 47 1006.0
20260504014258 66 188 1.0 1.0 0.00 0.00 0.00 46 1005.9
20260504013756 67 218 1.0 2.0 0.00 0.00 0.00 45 1006.0
20260504013253 68 216 2.0 3.0 0.00 0.00 0.00 45 1006.1
20260504012749 67 239 3.0 3.0 0.00 0.00 0.00 45 1006.0
20260504012248 68 252 1.0 1.0 0.00 0.00 0.00 45 1005.8
20260504011744 68 239 1.0 2.0 0.00 0.00 0.00 44 1006.0
20260504011241 68 220 1.0 2.0 0.00 0.00 0.00 44 1005.9
20260504010737 68 186 1.0 2.0 0.00 0.00 0.00 45 1005.7
20260504010233 68 162 3.0 5.0 0.00 0.00 0.00 44 1005.7
20260504005730 69 187 1.0 2.0 0.00 0.00 0.00 44 1005.7
20260504005227 69 160 4.0 7.0 0.00 0.00 0.00 44 1005.7
20260504004725 69 203 2.0 2.0 0.00 0.00 0.00 43 1005.6
20260504004221 69 205 1.0 1.0 0.00 0.00 0.00 43 1005.6
20260504003718 69 228 1.0 1.0 0.00 0.00 0.00 44 1005.6
20260504003215 70 216 1.0 1.0 0.00 0.00 0.00 44 1005.7
20260504002712 70 200 2.0 6.0 0.00 0.00 0.00 42 1005.5
20260504002209 71 201 3.0 3.0 0.00 0.00 0.00 42 1005.5
20260504001707 71 208 3.0 3.0 0.00 0.00 0.00 42 1005.4
20260504001203 71 246 4.0 6.0 0.00 0.00 0.00 43 1005.6
20260504000700 71 202 1.0 2.0 0.00 0.00 0.00 42 1005.7
20260504000157 71 222 7.0 10.0 0.00 0.00 0.00 42 1005.5
20260503235655 71 234 2.0 2.0 0.00 0.00 0.00 42 1005.5
20260503235151 71 199 0.0 1.0 0.00 0.00 0.00 43 1005.3
20260503234650 71 216 3.0 5.0 0.00 0.00 0.00 42 1005.6
20260503234148 71 188 3.0 3.0 0.00 0.00 0.00 43 1005.6
20260503233644 72 175 2.0 2.0 0.00 0.00 0.00 43 1005.6
20260503233140 72 229 5.0 6.0 0.00 0.00 0.00 42 1005.8
20260503232637 72 214 5.0 7.0 0.00 0.00 0.00 42 1005.8
20260503232134 72 214 2.0 2.0 0.00 0.00 0.00 43 1005.8
20260503231632 71 146 2.0 2.0 0.00 0.00 0.00 43 1005.7
20260503231128 71 198 3.0 5.0 0.00 0.00 0.00 43 1005.7
20260503230625 71 255 4.0 5.0 0.00 0.00 0.00 43 1006.0
20260503230123 71 204 2.0 2.0 0.00 0.00 0.00 43 1005.9
20260503225620 72 164 1.0 1.0 0.00 0.00 0.00 42 1005.9
20260503225119 72 225 4.0 8.0 0.00 0.00 0.00 43 1005.9
20260503224617 72 228 4.0 5.0 0.00 0.00 0.00 42 1005.8
20260503224115 72 223 1.0 1.0 0.00 0.00 0.00 41 1005.9
20260503223613 72 238 2.0 3.0 0.00 0.00 0.00 41 1005.9
20260503223108 72 317 9.0 15.0 0.00 0.00 0.00 41 1006.1
20260503222606 72 198 4.0 6.0 0.00 0.00 0.00 41 1005.9
20260503222104 73 228 7.0 13.0 0.00 0.00 0.00 41 1005.9
20260503221602 73 300 3.0 6.0 0.00 0.00 0.00 41 1005.7
20260503221059 73 251 7.0 11.0 0.00 0.00 0.00 40 1005.9
20260503220555 73 285 8.0 11.0 0.00 0.00 0.00 40 1006.0
20260503220053 73 234 6.0 9.0 0.00 0.00 0.00 39 1006.0
20260503215549 73 311 7.0 9.0 0.00 0.00 0.00 39 1005.9
20260503215046 73 177 3.0 6.0 0.00 0.00 0.00 39 1006.0
20260503214544 73 196 2.0 2.0 0.00 0.00 0.00 40 1006.0
20260503214041 73 190 2.0 3.0 0.00 0.00 0.00 39 1005.9
20260503213539 73 204 1.0 3.0 0.00 0.00 0.00 39 1006.0
20260503213036 74 168 3.0 5.0 0.00 0.00 0.00 39 1006.1
20260503212533 74 283 2.0 3.0 0.00 0.00 0.00 39 1006.0
20260503212030 74 160 4.0 5.0 0.00 0.00 0.00 39 1006.0
20260503211527 73 176 1.0 2.0 0.00 0.00 0.00 40 1006.2
20260503211023 73 208 3.0 5.0 0.00 0.00 0.00 39 1006.0
20260503210520 73 219 1.0 1.0 0.00 0.00 0.00 41 1006.2
20260503210016 72 164 2.0 2.0 0.00 0.00 0.00 40 1006.3
20260503205512 72 203 2.0 3.0 0.00 0.00 0.00 41 1006.3
20260503205009 73 206 5.0 7.0 0.00 0.00 0.00 39 1006.6
20260503204506 72 304 5.0 7.0 0.00 0.00 0.00 40 1006.3
20260503204003 72 238 6.0 9.0 0.00 0.00 0.00 39 1006.5
20260503203500 73 147 7.0 8.0 0.00 0.00 0.00 40 1006.6
20260503202956 72 173 3.0 5.0 0.00 0.00 0.00 40 1006.6
20260503202455 72 6 7.0 9.0 0.00 0.00 0.00 40 1006.5
20260503201953 74 201 4.0 6.0 0.00 0.00 0.00 40 1006.7
20260503201450 73 133 5.0 6.0 0.00 0.00 0.00 41 1006.8
20260503200947 71 162 2.0 3.0 0.00 0.00 0.00 42 1006.9
20260503200444 71 247 4.0 7.0 0.00 0.00 0.00 42 1006.8
20260503195940 72 351 4.0 6.0 0.00 0.00 0.00 40 1007.0
20260503195438 71 206 5.0 6.0 0.00 0.00 0.00 41 1006.9
20260503194934 71 171 3.0 5.0 0.00 0.00 0.00 41 1007.1
20260503194431 71 183 1.0 2.0 0.00 0.00 0.00 44 1007.2
20260503193926 71 209 1.0 2.0 0.00 0.00 0.00 43 1007.2
20260503193422 71 240 2.0 5.0 0.00 0.00 0.00 42 1007.3
20260503192918 71 203 1.0 2.0 0.00 0.00 0.00 43 1007.3
20260503192415 71 217 2.0 3.0 0.00 0.00 0.00 40 1007.5
20260503191911 71 210 6.0 13.0 0.00 0.00 0.00 40 1007.6
20260503191408 70 216 7.0 13.0 0.00 0.00 0.00 43 1007.2
20260503190904 70 222 2.0 2.0 0.00 0.00 0.00 43 1007.3
20260503190402 70 173 5.0 7.0 0.00 0.00 0.00 43 1007.5
20260503185858 69 218 6.0 11.0 0.00 0.00 0.00 45 1007.6
20260503185355 69 234 4.0 6.0 0.00 0.00 0.00 43 1007.6
20260503184854 69 243 8.0 11.0 0.00 0.00 0.00 42 1007.5
20260503184351 71 221 3.0 5.0 0.00 0.00 0.00 42 1007.6
20260503183847 68 253 2.0 3.0 0.00 0.00 0.00 43 1007.7
20260503183344 68 338 8.0 13.0 0.00 0.00 0.00 43 1007.9
20260503182841 68 269 5.0 7.0 0.00 0.00 0.00 43 1008.0
20260503182340 67 289 6.0 8.0 0.00 0.00 0.00 43 1007.9
20260503181837 69 251 10.0 15.0 0.00 0.00 0.00 41 1007.9
20260503181334 68 216 5.0 11.0 0.00 0.00 0.00 43 1008.1
20260503180830 68 176 6.0 7.0 0.00 0.00 0.00 44 1008.0
20260503180328 68 202 4.0 9.0 0.00 0.00 0.00 44 1008.1
20260503175824 66 146 6.0 11.0 0.00 0.00 0.00 45 1008.3
20260503175323 66 202 7.0 9.0 0.00 0.00 0.00 44 1008.4
20260503174818 66 243 4.0 5.0 0.00 0.00 0.00 45 1008.6
20260503174316 66 182 9.0 10.0 0.00 0.00 0.00 44 1008.8
20260503173812 66 207 4.0 6.0 0.00 0.00 0.00 46 1009.0
20260503173308 66 211 5.0 9.0 0.00 0.00 0.00 44 1009.0
20260503172805 65 173 5.0 6.0 0.00 0.00 0.00 44 1008.9
20260503172305 66 170 6.0 8.0 0.00 0.00 0.00 44 1009.0
20260503171758 65 159 5.0 8.0 0.00 0.00 0.00 46 1008.9
20260503171255 65 158 8.0 10.0 0.00 0.00 0.00 45 1008.9
20260503170752 65 180 7.0 10.0 0.00 0.00 0.00 45 1009.1
20260503170249 65 199 2.0 5.0 0.00 0.00 0.00 45 1009.1
20260503160211 58 185 1.0 2.0 0.00 0.00 0.00 55 1010.4
20260503150641 53 160 5.0 5.0 0.00 0.00 0.00 59 1011.4
20260503150137 53 185 3.0 5.0 0.00 0.00 0.00 61 1011.3
20260503131031 50 188 2.0 2.0 0.00 0.00 0.00 66 1013.4
20260503130528 50 200 1.0 2.0 0.00 0.00 0.00 65 1013.8
20260503110419 51 206 1.0 1.0 0.00 0.00 0.00 56 1013.5
20260503090304 50 186 1.0 1.0 0.00 0.00 0.00 55 1014.4